TimeCEST,TemperatureF,Dew PointF,Humidity,Sea Level PressureIn,VisibilityMPH,Wind Direction,Wind SpeedMPH,Gust SpeedMPH,PrecipitationIn,Events,Conditions,WindDirDegrees,DateUTC
12:20 AM,59.0,51.8,77,30.18,6.2,Calm,Calm,-,N/A,,Mostly Cloudy,0,2013-10-13 22:20:00
12:50 AM,57.2,51.8,82,30.18,6.2,Variable,2.3,-,N/A,,Mostly Cloudy,0,2013-10-13 22:50:00
1:20 AM,57.2,51.8,82,30.18,-9999.0,Variable,1.2,-,N/A,,Clear,0,2013-10-13 23:20:00
1:50 AM,57.2,51.8,82,30.18,-9999.0,Calm,Calm,-,N/A,,Clear,0,2013-10-13 23:50:00
2:20 AM,57.2,50.0,77,30.18,-9999.0,Variable,1.2,-,N/A,,Clear,0,2013-10-14 00:20:00
2:50 AM,55.4,50.0,82,30.18,-9999.0,Calm,Calm,-,N/A,,Clear,0,2013-10-14 00:50:00
3:20 AM,55.4,50.0,82,30.18,-9999.0,Variable,1.2,-,N/A,,Clear,0,2013-10-14 01:20:00
3:50 AM,53.6,50.0,88,30.15,-9999.0,Variable,3.5,-,N/A,,Clear,0,2013-10-14 01:50:00
4:20 AM,53.6,51.8,94,30.15,-9999.0,Variable,2.3,-,N/A,,Clear,0,2013-10-14 02:20:00
4:50 AM,53.6,51.8,94,30.15,-9999.0,Variable,2.3,-,N/A,,Clear,0,2013-10-14 02:50:00
5:20 AM,53.6,50.0,88,30.15,-9999.0,Variable,2.3,-,N/A,,Clear,0,2013-10-14 03:20:00
5:50 AM,51.8,50.0,94,30.15,-9999.0,Variable,3.5,-,N/A,,Clear,0,2013-10-14 03:50:00
6:20 AM,51.8,50.0,94,30.15,4.3,Variable,1.2,-,N/A,,Unknown,0,2013-10-14 04:20:00
6:50 AM,51.8,50.0,94,30.15,2.8,Variable,1.2,-,N/A,,Mist,0,2013-10-14 04:50:00
7:20 AM,51.8,50.0,94,30.15,2.8,Variable,3.5,-,N/A,,Scattered Clouds,0,2013-10-14 05:20:00
7:50 AM,51.8,50.0,94,30.15,3.1,Variable,3.5,-,N/A,,Scattered Clouds,0,2013-10-14 05:50:00
8:20 AM,51.8,50.0,94,30.15,3.7,Variable,3.5,-,N/A,,Scattered Clouds,0,2013-10-14 06:20:00
8:50 AM,51.8,50.0,94,30.15,4.3,Variable,3.5,-,N/A,,Scattered Clouds,0,2013-10-14 06:50:00
9:20 AM,51.8,50.0,94,30.15,5.0,Variable,3.5,-,N/A,,Scattered Clouds,0,2013-10-14 07:20:00
9:50 AM,53.6,50.0,88,30.18,5.0,Variable,3.5,-,N/A,,Scattered Clouds,0,2013-10-14 07:50:00
10:20 AM,53.6,50.0,88,30.18,5.6,Variable,1.2,-,N/A,,Mostly Cloudy,0,2013-10-14 08:20:00
10:50 AM,55.4,51.8,88,30.18,5.6,Variable,2.3,-,N/A,,Mostly Cloudy,0,2013-10-14 08:50:00
11:20 AM,57.2,51.8,82,30.18,5.6,Calm,Calm,-,N/A,,Mostly Cloudy,0,2013-10-14 09:20:00
11:50 AM,57.2,51.8,82,30.18,5.6,Variable,1.2,-,N/A,,Mostly Cloudy,0,2013-10-14 09:50:00
12:20 PM,59.0,51.8,77,30.18,5.6,Variable,1.2,-,N/A,,Mostly Cloudy,0,2013-10-14 10:20:00
12:50 PM,60.8,51.8,72,30.18,5.6,Calm,Calm,-,N/A,,Mostly Cloudy,0,2013-10-14 10:50:00
1:20 PM,59.0,51.8,77,30.18,5.6,Variable,1.2,-,N/A,,Mostly Cloudy,0,2013-10-14 11:20:00
1:50 PM,59.0,51.8,77,30.15,5.6,Variable,1.2,-,N/A,,Mostly Cloudy,0,2013-10-14 11:50:00
2:20 PM,60.8,53.6,77,30.15,5.6,Variable,1.2,-,N/A,,Mostly Cloudy,0,2013-10-14 12:20:00
2:50 PM,60.8,51.8,72,30.15,6.2,Calm,Calm,-,N/A,,Mostly Cloudy,0,2013-10-14 12:50:00
3:20 PM,60.8,51.8,72,30.15,6.2,Calm,Calm,-,N/A,,Mostly Cloudy,0,2013-10-14 13:20:00
3:50 PM,60.8,51.8,72,30.12,6.2,Variable,1.2,-,N/A,,Mostly Cloudy,0,2013-10-14 13:50:00
4:20 PM,60.8,51.8,72,30.12,6.2,Variable,1.2,-,N/A,,Mostly Cloudy,0,2013-10-14 14:20:00
4:50 PM,60.8,51.8,72,30.12,6.2,Variable,1.2,-,N/A,,Mostly Cloudy,0,2013-10-14 14:50:00
5:20 PM,60.8,51.8,72,30.12,6.2,Variable,1.2,-,N/A,,Mostly Cloudy,0,2013-10-14 15:20:00
5:50 PM,60.8,51.8,72,30.09,6.2,Variable,1.2,-,N/A,,Mostly Cloudy,0,2013-10-14 15:50:00
6:20 PM,60.8,51.8,72,30.09,6.2,Calm,Calm,-,N/A,,Mostly Cloudy,0,2013-10-14 16:20:00
6:50 PM,59.0,51.8,77,30.09,6.2,Calm,Calm,-,N/A,,Mostly Cloudy,0,2013-10-14 16:50:00
7:20 PM,59.0,51.8,77,30.12,6.2,Variable,2.3,-,N/A,,Mostly Cloudy,0,2013-10-14 17:20:00
7:50 PM,59.0,51.8,77,30.12,6.2,Variable,3.5,-,N/A,,Mostly Cloudy,0,2013-10-14 17:50:00
8:20 PM,59.0,51.8,77,30.12,6.2,Variable,2.3,-,N/A,,Mostly Cloudy,0,2013-10-14 18:20:00
8:50 PM,59.0,51.8,77,30.12,6.2,Calm,Calm,-,N/A,,Mostly Cloudy,0,2013-10-14 18:50:00
9:20 PM,57.2,51.8,82,30.12,6.2,Variable,1.2,-,N/A,,Mostly Cloudy,0,2013-10-14 19:20:00
9:50 PM,57.2,51.8,82,30.12,6.2,Variable,1.2,-,N/A,,Mostly Cloudy,0,2013-10-14 19:50:00
10:20 PM,57.2,53.6,88,30.12,6.2,Variable,1.2,-,N/A,,Mostly Cloudy,0,2013-10-14 20:20:00
10:50 PM,57.2,53.6,88,30.12,3.7,Variable,3.5,-,N/A,,Mostly Cloudy,0,2013-10-14 20:50:00
11:20 PM,57.2,53.6,88,30.12,3.7,Calm,Calm,-,N/A,,Mostly Cloudy,0,2013-10-14 21:20:00
11:50 PM,57.2,53.6,88,30.12,3.7,Variable,2.3,-,N/A,,Mostly Cloudy,0,2013-10-14 21:50:00